Location: Newark
(43.0000°N, 1.6781°W)
Time: 11:33:22
(UTC+00:00)

Transit 2A Rocket - Visible Passes

Search period start: 27 September 2022 00:00
Search period end: 07 October 2022 00:00
Orbit: 593 x 908 km, 66.7° (Epoch: 26 September)

Date Brightness Start Highest point End Pass type
(mag) Time Alt. Az. Time Alt. Az. Time Alt. Az.
01 Oct 7.4 05:11:04 10° SSE 05:14:13 20° ESE 05:17:21 10° ENE visible
02 Oct 8.0 04:31:16 10° ESE 04:31:38 10° ESE 04:32:00 10° E visible
03 Oct 5.3 05:26:23 10° SSW 05:30:36 56° ESE 05:34:51 10° NE visible
04 Oct 6.5 04:44:08 10° S 04:47:52 29° ESE 04:51:35 10° NE visible
05 Oct 7.3 04:02:40 10° SE 04:05:13 15° ESE 04:07:46 10° ENE visible
06 Oct 4.5 05:00:02 10° SSW 05:04:20 84° ESE 05:08:41 10° NNE visible
